ATLAS 5 CENTAUR DEB, 44687

Orbit data source: Space-Track

ATLAS 5 CENTAUR DEB, 44687 is space debris in HEO originally from a launch on Wed, 17 Oct 2018 UTC launched from the Air Force Eastern Test Range (AFETR). Debris objects in space refer to the collection of defunct objects orbiting the Earth. Examples of debris include non-operational satellites, rocket bodies, and fragments generated from explosions, collisions, or faulty payload assembly.

Loading next visibility...
Identifier
44687, 2018-079AZ
Orbit
HEO
Country
Flag of USUS
Related business
Flag of USUnited Launch Alliance/Lockheed Martin (US)
Manufacturer
ULA Decatur
Mission
Spacecraft
Bus & Motor
Unknown
Mass
Unknown
Launch date (UTC)
2018-10-17 (7 years ago)
Launch vehicle
Unknown
Launch site
Air Force Eastern Test Range (AFETR)
Object type
Payload
Rocket body
Debris
Shape & HBR
Unknown shape, 1.1 m
Radar Cross Section
RCS unknown

Expand to show TLE details & history
Last TLE update: 4 days ago

TLE from 4 days ago
0 ATLAS 5 CENTAUR DEB
1 44687U 18079AZ  25346.41228596 -.00000076  00000-0  00000-0 0  9995
2 44687  13.0349  54.0317 4621251 279.2936  32.9552  1.82178954 42759
Epoch: 2025-12-12T09:53Z
TLE epoch observation values (Epoch: 2025-12-12T09:53:41.506Z)
Latitude
-0.00001°
Longitude
-175.80295°
Altitude
14,369.992 km
Speed
4.934 km/s
True Right ascension
03h 35m 53s
True Declination
0° 00' 00"
Sunlit
Object was in daylight at epoch
Visualization orbit readout
Latitude
Unknown
Longitude
Unknown
Altitude
Unknown
Speed
Unknown
Apparent Right ascension
Unknown
Apparent Declination
Unknown
Sunlit
N/A
Visualization observer readout
Local Sidereal Time
11:40:01
Azimuth
Unknown
Elevation
Unknown
Doppler factor
Unknown
Orbital elements
Apogee altitude
35,030.038 km
Perigee altitude
8,854.772 km
Semi-major axis
28,320.542 km
Eccentricity
0.46213
Inclination
13.0349°
RAAN
54.0317°
Arg. of periapsis
279.2936°
True anomaly
80.69145°
Mean anomaly
32.9552°
Eccentric anomaly
54.51531°
Mean motion
0.4554 °/min
Orbital period
790.52 mins
BSTAR
0
Loading maneuver chart data...
Computing Atmospheric mass density...

Documentation

Showing up to 5 results
|